Theta_e
315 317 326 331 331 331 332 331 332 332 333 354 353 351 349 352 351 355 353 354 356 356 352 349 348 348 345 342 339 340 343 340 338 330 327 328 330 329 332 330 331 335 338
314 315 321 323 326 329 330 329 336 338 338 355 355 352 351 351 352 351 352 353 353 351 352 349 347 348 345 343 344 341 337 334 333 326 324 318 320 326 327 326 329 330 334
313 313 314 320 323 323 326 328 334 350 353 354 354 350 347 344 346 346 348 351 353 352 351 350 348 345 342 344 344 339 334 328 329 327 321 313 314 318 322 326 328 328 328
312 312 312 311 317 327 332 333 335 339 348 348 348 342 337 339 337 345 349 349 352 349 350 349 347 344 340 334 335 339 334 329 323 323 327 325 322 318 315 320 325 326 326
310 311 313 314 315 323 325 331 334 339 342 345 346 342 338 338 339 342 347 347 348 349 351 348 343 339 336 333 332 330 329 328 326 323 321 319 317 316 316 311 314 316 319
312 312 312 317 321 321 327 332 335 334 342 345 343 345 345 341 340 341 344 344 345 346 344 343 338 337 333 331 327 328 327 328 325 325 322 317 314 314 313 309 310 310 314
314 310 313 319 322 324 324 328 338 341 339 347 346 344 343 342 344 339 339 336 334 334 335 335 334 335 331 329 327 327 326 327 325 324 322 321 319 315 313 311 307 308 309
309 315 321 323 325 326 329 328 333 336 339 340 343 343 342 343 342 338 335 333 332 332 332 334 333 332 332 329 329 327 326 325 323 323 324 321 319 317 314 311 308 304 305
315 321 323 325 326 329 330 332 333 334 334 333 335 339 341 336 331 334 331 335 333 334 331 332 332 331 332 330 327 326 323 324 323 323 322 322 323 321 318 315 312 309 302
317 318 321 323 325 324 326 326 326 325 326 325 327 327 326 329 327 328 326 328 328 329 331 333 332 331 330 328 328 327 325 324 325 324 322 322 322 321 319 318 316 312 309
316 318 319 323 321 319 318 322 320 318 319 321 320 320 321 323 324 322 321 321 322 323 326 327 326 328 330 331 328 326 325 325 324 324 322 322 321 321 320 317 316 314 312
310 311 317 318 317 315 315 314 315 315 314 318 320 318 318 318 318 318 319 321 321 322 321 323 322 323 324 323 324 326 328 326 324 324 324 323 325 320 321 320 318 317 315
310 311 312 313 312 312 313 313 313 312 312 313 312 314 314 314 314 315 315 316 316 316 317 318 318 319 319 318 318 318 320 322 323 323 323 323 322 321 321 318 318 317 319
309 311 312 310 310 311 311 311 310 312 312 312 311 311 311 312 312 313 314 315 315 314 314 314 315 315 315 315 315 314 313 312 314 315 317 318 319 320 320 319 318 319 317
309 309 307 308 309 309 310 310 310 311 311 311 309 309 310 309 309 310 311 312 312 312 313 312 312 312 312 314 309 307 307 307 307 309 310 310 313 316 314 313 313 314 315
308 309 308 309 309 309 309 310 310 310 309 308 308 308 308 308 307 307 308 309 309 309 310 309 309 308 311 306 304 303 302 304 305 305 307 309 313 312 310 309 310 310 309
308 308 308 309 308 309 309 307 308 309 307 307 308 307 306 305 304 304 304 303 303 304 304 305 305 305 305 300 299 300 298 300 301 302 303 305 309 308 308 308 307 307 307
307 306 307 307 308 307 308 308 307 306 306 305 306 306 305 303 302 302 301 301 301 300 300 300 301 301 303 298 296 298 296 296 297 299 300 301 303 303 305 306 306 306 307
306 306 306 306 306 306 306 305 305 304 304 304 303 303 303 301 300 298 297 297 295 295 295 296 296 295 295 296 296 296 297 297 296 297 298 300 300 299 298 300 300 301 302
305 305 305 306 304 304 304 302 301 301 301 301 301 300 299 297 296 294 293 293 291 292 293 292 293 294 295 296 295 295 294 294 294 296 297 299 299 297 296 298 299 298 300
305 304 304 302 302 302 300 299 299 297 297 298 297 297 295 292 291 290 290 290 291 291 291 291 292 294 296 295 295 295 295 294 295 296 296 297 297 295 295 295 298 298 300
302 302 300 300 299 300 298 296 294 295 294 293 293 291 290 290 291 290 290 291 291 290 290 290 292 294 295 296 295 294 294 296 295 295 297 297 295 295 294 295 295 294 296
299 299 297 296 297 297 294 291 291 292 291 289 287 288 289 290 289 289 289 288 289 288 289 290 291 292 295 296 296 294 294 295 296 298 297 295 294 293 294 295 295 295 296
296 296 295 295 293 293 292 290 290 289 288 286 288 288 287 288 288 288 288 288 287 287 288 289 290 292 293 294 295 295 296 295 296 296 295 295 294 294 294 295 296 297 299
295 295 294 292 289 289 288 289 288 287 286 286 287 286 286 287 287 288 288 288 289 289 288 289 291 291 291 293 293 293 293 293 293 292 292 291 293 294 295 298 300 303 304
293 292 290 288 287 287 287 287 288 288 286 285 285 286 286 287 288 288 288 291 291 291 291 291 290 293 293 292 292 291 291 290 290 291 290 291 292 294 296 298 302 305 305
Wind_Speed
9 10 8 14 18 15 19 18 11 16 14 9 7 4 5 3 2 3 7 8 10 10 8 5 5 4 4 7 9 8 7 0 3 3 4 4 4 5 3 3 4 4 3
8 12 8 5 15 21 17 18 16 27 24 13 8 4 5 4 5 5 6 8 9 9 7 7 6 5 4 5 4 3 1 1 1 3 1 3 5 4 4 3 2 4 1
7 6 7 12 8 10 20 16 20 28 15 8 5 1 1 2 2 4 4 6 10 8 7 6 5 3 2 4 4 5 6 3 1 2 4 0 4 3 2 1 1 4 3
7 6 7 8 4 18 15 14 10 9 8 9 8 8 5 6 4 5 5 6 9 9 7 8 7 4 4 4 3 5 4 4 3 2 2 2 4 2 4 3 1 2 3
9 12 8 6 4 8 10 8 8 7 6 6 5 4 4 4 2 2 6 5 6 8 7 7 6 6 5 5 6 5 5 4 3 3 1 1 1 3 3 3 5 2 4
10 12 2 5 6 8 7 6 8 6 5 6 7 5 3 5 1 2 3 4 4 5 5 6 7 6 6 5 5 5 5 5 4 3 3 4 3 3 2 2 4 3 4
18 6 4 6 8 9 9 7 6 4 5 4 5 5 4 2 4 4 4 2 2 1 5 5 5 5 5 6 4 4 4 5 4 5 4 3 4 3 3 3 4 3 4
8 10 9 9 9 10 10 8 8 7 7 7 5 3 3 2 2 3 4 4 2 3 6 7 6 7 6 4 3 3 4 5 5 6 5 3 5 3 3 4 3 3 3
12 14 13 13 11 10 9 9 9 9 8 8 6 6 6 7 7 5 5 5 2 4 7 6 8 7 7 7 6 4 5 5 5 6 6 5 5 4 5 4 4 5 3
14 12 11 11 12 11 10 10 10 9 7 8 8 8 8 8 7 6 7 6 5 7 5 4 2 1 4 6 6 5 6 6 6 5 7 6 5 6 5 5 5 4 5
13 12 10 9 9 11 10 7 8 9 8 7 8 9 8 8 8 7 6 5 5 6 7 6 6 6 5 6 5 7 7 8 8 7 7 9 7 6 6 4 4 4 4
11 9 14 12 11 10 9 8 8 8 8 8 8 7 8 7 7 6 7 6 6 5 3 2 3 4 5 4 4 7 7 7 8 10 7 9 7 8 8 5 8 6 5
11 11 11 11 9 8 8 8 8 8 7 7 6 7 8 6 6 6 6 6 7 7 7 6 7 6 5 5 6 5 6 7 7 8 10 13 9 10 8 7 6 5 4
14 13 12 10 10 9 9 8 8 8 7 7 7 6 7 6 5 5 5 5 5 5 6 6 6 6 6 6 7 8 7 6 5 5 6 6 7 8 9 7 8 7 8
14 13 10 8 8 8 8 8 7 7 7 7 7 6 6 6 6 6 6 6 6 6 7 7 7 7 6 5 5 5 6 7 7 6 6 6 6 8 6 4 5 5 6
13 11 9 9 8 8 7 7 6 5 5 6 6 7 7 7 7 8 8 7 7 7 5 6 5 6 4 9 8 6 5 6 6 6 5 6 7 7 7 5 7 7 9
12 9 8 7 7 8 7 5 4 5 6 6 7 7 7 7 7 6 6 7 7 6 7 7 7 7 6 4 6 6 4 5 6 6 6 7 8 7 8 10 11 11 10
9 9 8 8 7 5 6 6 6 6 6 6 6 6 6 6 7 8 9 8 6 7 6 7 7 7 6 2 0 8 6 5 6 7 8 9 9 7 8 10 12 13 10
8 8 8 7 8 8 7 7 7 7 7 6 6 6 8 9 9 9 7 6 6 6 6 8 8 8 7 12 15 15 12 12 14 13 14 14 15 15 15 13 15 16 15
8 8 8 9 9 7 8 8 7 7 7 8 9 9 8 8 7 7 8 6 5 8 8 12 12 15 14 13 12 12 6 9 10 11 11 15 13 14 14 12 12 12 13
9 9 10 8 8 7 7 7 7 9 8 9 9 10 9 9 8 9 9 10 10 10 10 11 11 12 10 11 14 15 8 8 8 8 8 8 11 13 15 13 10 12 12
12 10 8 7 7 8 8 8 10 7 8 9 9 9 9 9 9 10 10 10 9 10 11 11 11 8 9 11 11 13 13 14 9 10 9 10 13 12 11 11 14 15 13
12 9 7 8 9 14 12 9 8 10 10 9 9 10 10 10 9 10 11 10 9 8 9 9 9 9 8 7 10 14 14 11 6 7 10 12 12 13 12 18 19 17 8
8 7 8 8 11 11 11 8 9 9 9 9 10 10 10 12 10 8 7 7 8 8 8 8 9 9 9 8 7 7 7 7 8 10 7 13 16 20 19 16 14 10 10
8 8 10 11 11 11 11 9 9 10 9 9 9 9 8 9 10 8 8 8 9 9 9 10 9 9 10 10 9 8 8 8 9 11 9 9 9 10 10 10 11 10 9
11 12 12 11 11 11 10 9 9 8 9 9 7 7 7 7 7 8 9 10 16 21 22 23 18 11 17 20 18 15 14 15 14 7 8 9 9 11 11 10 10 9 11
Wind_Direction
282 343 168 174 145 158 146 159 157 294 265 224 185 184 200 202 187 187 167 180 185 180 176 182 202 204 180 182 185 205 185 61 56 46 334 322 287 283 119 53 31 25 89
304 316 137 273 161 175 172 165 166 199 240 217 184 179 185 205 195 189 185 185 179 180 169 175 198 202 193 230 214 167 132 145 138 155 116 325 332 340 353 45 50 343 351
267 298 294 181 221 226 181 192 196 188 194 174 167 188 112 45 181 192 205 192 189 172 169 174 177 222 197 257 192 166 157 169 347 130 157 355 228 348 343 326 326 322 322
236 261 245 289 219 204 191 186 171 158 168 167 180 184 169 187 215 191 196 183 176 172 178 182 180 180 164 195 211 182 152 137 179 331 228 203 156 157 334 327 314 3 293
200 247 214 273 209 167 173 177 173 167 176 159 146 171 160 191 250 175 176 166 167 164 169 180 157 174 161 204 170 147 141 146 144 175 236 356 320 162 151 264 318 342 309
225 247 253 231 103 108 105 141 162 175 153 177 169 148 71 222 200 52 183 168 154 146 188 183 175 169 177 185 187 162 165 166 169 180 187 177 197 225 141 191 272 250 276
220 226 151 73 61 53 60 59 101 98 169 158 179 135 96 32 11 308 162 142 133 169 183 210 172 165 189 180 159 162 188 191 191 201 219 203 219 180 172 152 254 235 279
161 137 110 87 64 49 37 70 80 77 70 54 69 80 44 27 19 100 96 126 178 202 222 202 183 171 162 177 177 192 203 201 213 217 220 218 242 206 184 183 167 290 286
119 109 96 83 75 70 56 59 68 72 73 64 66 63 70 70 52 49 89 75 125 243 230 195 181 177 173 195 193 208 225 208 224 231 232 221 239 230 231 213 186 181 224
103 106 102 97 84 72 74 64 65 69 65 63 53 49 47 54 58 52 38 18 31 20 43 71 51 154 207 205 196 217 229 214 228 221 226 232 233 236 232 231 226 195 202
118 114 109 96 87 80 61 65 65 62 52 63 59 49 44 38 44 49 46 35 21 38 4 18 339 317 279 248 227 229 228 223 232 235 225 234 229 232 236 238 233 235 196
120 113 109 110 101 92 81 74 56 54 47 36 45 47 44 38 36 14 7 356 353 348 341 317 358 317 307 289 270 264 252 233 237 246 239 245 246 237 239 236 243 242 230
97 102 103 100 89 80 81 79 64 59 45 51 57 42 33 24 19 3 348 346 340 336 337 342 342 327 317 308 300 269 262 270 275 269 260 260 253 254 251 243 241 242 242
85 82 86 85 81 76 70 63 47 46 35 40 33 20 10 357 329 318 306 301 303 315 329 302 292 294 299 303 302 299 305 310 308 307 303 308 293 274 269 251 243 244 257
88 94 88 87 86 72 67 57 45 39 31 19 14 349 345 330 324 311 303 304 288 261 255 261 266 273 283 286 312 324 306 300 297 293 290 283 274 286 265 271 281 274 262
103 95 90 90 89 87 79 63 46 32 30 7 347 342 342 335 325 321 322 314 320 325 330 326 322 317 304 306 4 30 347 323 310 303 311 307 300 289 299 290 253 261 293
99 96 93 94 94 90 95 80 50 37 23 3 350 341 335 331 340 342 346 343 338 343 343 348 352 347 353 65 70 28 330 301 291 294 289 291 284 302 295 285 288 288 271
82 78 78 74 82 73 67 66 49 28 14 355 333 324 338 344 346 2 15 5 3 354 340 333 334 326 317 155 87 328 311 302 284 284 288 284 277 264 277 283 281 274 264
83 85 91 90 67 63 58 54 32 21 7 337 341 359 11 20 10 357 356 352 355 346 336 329 324 315 301 296 297 300 296 291 287 283 277 273 271 265 265 275 277 274 268
77 78 63 65 63 45 47 42 16 11 6 6 16 26 20 10 359 4 344 329 318 302 302 297 286 282 284 289 286 287 279 278 285 282 274 272 266 270 264 265 268 268 270
78 67 68 68 58 47 47 33 29 36 25 16 9 6 12 359 344 327 314 311 308 304 299 293 289 280 274 280 273 268 263 262 271 274 279 276 268 263 265 261 266 262 271
57 57 62 55 38 44 55 45 47 15 14 7 2 358 343 331 325 315 309 306 301 300 299 296 291 285 285 282 285 281 268 272 272 273 271 271 266 270 272 276 270 254 252
56 47 46 34 37 54 52 44 17 12 5 1 345 333 328 323 323 318 316 314 310 298 298 299 299 298 291 289 289 286 289 283 292 282 279 285 285 285 283 271 265 265 252
44 33 41 39 54 41 38 29 15 6 354 340 333 327 324 323 319 311 301 298 296 295 290 290 289 292 297 294 284 283 289 303 307 309 311 296 284 273 266 273 267 253 243
30 43 41 48 37 24 17 12 5 352 340 327 326 325 318 310 305 296 289 284 279 270 278 281 282 287 286 279 273 274 283 286 287 300 291 286 282 284 277 270 263 253 242
32 40 36 34 21 8 356 346 342 333 326 322 319 310 309 305 299 298 303 283 265 275 275 268 262 274 266 275 276 272 271 271 275 278 280 282 273 271 273 273 268 258 247